vienna.at alexa rank chart, vienna.at alexa rank daily changes

vienna.at alexa rank chart, vienna.at alexa rank daily changes

vienna.at
Actual rank:
54 519

RANK HISTORY

Date Rank Diff
2017/11/17 54 519 +6 536
2017/11/16 47 983 +117
2017/11/15 47 866 +227
2017/11/14 47 639 +144
2017/11/13 47 495 +810
2017/11/12 46 685 -406
2017/11/11 47 091 +211
2017/11/10 46 880 +278
2017/11/09 46 602 +276
2017/11/08 46 326 +54
2017/11/07 46 272 +113
2017/11/06 46 159 -96
2017/11/05 46 255 +249
2017/11/04 46 006 -61
2017/11/03 46 067 +195
2017/11/02 45 872 -23
2017/11/01 45 895 +343
2017/10/31 45 552 +16
2017/10/30 45 536 +218
2017/10/29 45 318 -47
2017/10/28 45 365 -731
2017/10/27 46 096 +132
2017/10/26 45 964 +137
2017/10/25 45 827 -155
2017/10/24 45 982 -319
2017/10/23 46 301 +203
2017/10/22 46 098 -266
2017/10/21 46 364 -823
2017/10/20 47 187 +456
2017/10/19 46 731 -269
2017/10/18 47 000 -246
2017/10/17 47 246 -4 821
2017/10/16 52 067 +332
2017/10/14 51 735 -1 047
2017/10/13 52 782 -1 165
2017/10/12 53 947 +972
2017/10/11 52 975 -442
2017/10/10 53 417 +46
2017/10/09 53 371 -85
2017/10/08 53 456 -74
2017/10/07 53 530 -661
2017/10/06 54 191 -434
2017/10/05 54 625 +16
2017/10/04 54 609 +1 097
2017/10/03 53 512 +130
2017/10/02 53 382 -409
2017/10/01 53 791 +222
2017/09/30 53 569 +94
2017/09/29 53 475 +7
2017/09/28 53 468 +371
2017/09/27 53 097 +117
2017/09/26 52 980 +529
2017/09/25 52 451 +346
2017/09/24 52 105 +567
2017/09/23 51 538 +417
2017/09/22 51 121 +4
2017/09/20 51 117 -209
2017/09/19 51 326 +212
2017/09/18 51 114

WIDGET FOR YOUR SITE

DOMAINS WITH THE NEAREST RANK

Domain Rank
guitarnick.com 54 514
sli-systems.com 54 515
wsgjp.com.cn 54 516
mycheckfree.com 54 517
nowness.com 54 518
vienna.at 54 519
letote.com 54 520
nosis.com 54 521
aldi.com 54 522
primaryresources.co.uk 54 523
bpm-power.com 54 524

DOMAINS WITH THE NEAREST RANK BY TLD .at

Domain Rank
ottoversand.at 52 919
moebelix.at 53 040
news.at 53 945
transfermarkt.at 54 467
thalia.at 54 513
vienna.at 54 519
megashare.at 54 951
noctua.at 55 004
obvsg.at 56 013
unzensuriert.at 56 655
sky.at 57 868